Year,Month,Day,Hour,Minute,Value (Times are PST for temperature in C)
2021,04,16,00,00,9.60
2021,04,16,00,01,9.60
2021,04,16,00,02,9.50
2021,04,16,00,03,9.50
2021,04,16,00,04,9.50
2021,04,16,00,05,9.50
2021,04,16,00,06,9.50
2021,04,16,00,07,9.40
2021,04,16,00,08,9.40
2021,04,16,00,09,9.40
2021,04,16,00,10,9.40
2021,04,16,00,11,9.30
2021,04,16,00,12,9.30
2021,04,16,00,13,9.30
2021,04,16,00,14,9.30
2021,04,16,00,15,9.20
2021,04,16,00,16,9.20
2021,04,16,00,17,9.20
2021,04,16,00,18,9.20
2021,04,16,00,19,9.20
2021,04,16,00,20,9.20
2021,04,16,00,21,9.20
2021,04,16,00,22,9.20
2021,04,16,00,23,9.20
2021,04,16,00,24,9.10
2021,04,16,00,25,9.10
2021,04,16,00,26,9.00
2021,04,16,00,27,9.00
2021,04,16,00,28,9.00
2021,04,16,00,29,9.00
2021,04,16,00,30,9.00
2021,04,16,00,31,8.90
2021,04,16,00,32,8.90
2021,04,16,00,33,8.90
2021,04,16,00,34,8.80
2021,04,16,00,35,8.80
2021,04,16,00,36,8.80
2021,04,16,00,37,8.80
2021,04,16,00,38,8.70
2021,04,16,00,39,8.70
2021,04,16,00,40,8.70
2021,04,16,00,41,8.70
2021,04,16,00,42,8.70
2021,04,16,00,43,8.70
2021,04,16,00,44,8.70
2021,04,16,00,45,8.70
2021,04,16,00,46,8.70
2021,04,16,00,47,8.60
2021,04,16,00,48,8.60
2021,04,16,00,49,8.60
2021,04,16,00,50,8.60
2021,04,16,00,51,8.60
2021,04,16,00,52,8.50
2021,04,16,00,53,8.50
2021,04,16,00,54,8.50
2021,04,16,00,55,8.50
2021,04,16,00,56,8.50
2021,04,16,00,57,8.50
2021,04,16,00,58,8.50
2021,04,16,00,59,8.50
2021,04,16,01,00,8.50
2021,04,16,01,01,8.50
2021,04,16,01,02,8.50
2021,04,16,01,03,8.50
2021,04,16,01,04,8.50
2021,04,16,01,05,8.50
2021,04,16,01,06,8.50
2021,04,16,01,07,8.50
2021,04,16,01,08,8.40
2021,04,16,01,09,8.40
2021,04,16,01,10,8.40
2021,04,16,01,11,8.40
2021,04,16,01,12,8.40
2021,04,16,01,13,8.40
2021,04,16,01,14,8.30
2021,04,16,01,15,8.30
2021,04,16,01,16,8.30
2021,04,16,01,17,8.30
2021,04,16,01,18,8.30
2021,04,16,01,19,8.30
2021,04,16,01,20,8.30
2021,04,16,01,21,8.30
2021,04,16,01,22,8.30
2021,04,16,01,23,8.30
2021,04,16,01,24,8.30
2021,04,16,01,25,8.20
2021,04,16,01,26,8.20
2021,04,16,01,27,8.20
2021,04,16,01,28,8.20
2021,04,16,01,29,8.20
2021,04,16,01,30,8.20
2021,04,16,01,31,8.20
2021,04,16,01,32,8.20
2021,04,16,01,33,8.10
2021,04,16,01,34,8.10
2021,04,16,01,35,8.10
2021,04,16,01,36,8.10
2021,04,16,01,37,8.10
2021,04,16,01,38,8.00
2021,04,16,01,39,8.00
2021,04,16,01,40,8.00
2021,04,16,01,41,8.00
2021,04,16,01,42,8.00
2021,04,16,01,43,8.00
2021,04,16,01,44,8.00
2021,04,16,01,45,8.00
2021,04,16,01,46,8.00
2021,04,16,01,47,8.00
2021,04,16,01,48,8.00
2021,04,16,01,49,8.00
2021,04,16,01,50,7.90
2021,04,16,01,51,7.90
2021,04,16,01,52,7.90
2021,04,16,01,53,7.90
2021,04,16,01,54,7.90
2021,04,16,01,55,7.90
2021,04,16,01,56,7.90
2021,04,16,01,57,7.90
2021,04,16,01,58,7.90
2021,04,16,01,59,7.90
2021,04,16,02,00,7.90
2021,04,16,02,01,7.80
2021,04,16,02,02,7.80
2021,04,16,02,03,7.80
2021,04,16,02,04,7.80
2021,04,16,02,05,7.80
2021,04,16,02,06,7.80
2021,04,16,02,07,7.80
2021,04,16,02,08,7.80
2021,04,16,02,09,7.80
2021,04,16,02,10,7.80
2021,04,16,02,11,7.80
2021,04,16,02,12,7.80
2021,04,16,02,13,7.70
2021,04,16,02,14,7.70
2021,04,16,02,15,7.70
2021,04,16,02,16,7.70
2021,04,16,02,17,7.70
2021,04,16,02,18,7.70
2021,04,16,02,19,7.70
2021,04,16,02,20,7.70
2021,04,16,02,21,7.60
2021,04,16,02,22,7.60
2021,04,16,02,23,7.60
2021,04,16,02,24,7.60
2021,04,16,02,25,7.60
2021,04,16,02,26,7.60
2021,04,16,02,27,7.60
2021,04,16,02,28,7.60
2021,04,16,02,29,7.50
2021,04,16,02,30,7.50
2021,04,16,02,31,7.50
2021,04,16,02,32,7.50
2021,04,16,02,33,7.50
2021,04,16,02,34,7.40
2021,04,16,02,35,7.40
2021,04,16,02,36,7.40
2021,04,16,02,37,7.40
2021,04,16,02,38,7.30
2021,04,16,02,39,7.30
2021,04,16,02,40,7.30
2021,04,16,02,41,7.30
2021,04,16,02,42,7.30
2021,04,16,02,43,7.30
2021,04,16,02,44,7.30
2021,04,16,02,45,7.30
2021,04,16,02,46,7.30
2021,04,16,02,47,7.20
2021,04,16,02,48,7.20
2021,04,16,02,49,7.20
2021,04,16,02,50,7.20
2021,04,16,02,51,7.20
2021,04,16,02,52,7.20
2021,04,16,02,53,7.20
2021,04,16,02,54,7.10
2021,04,16,02,55,7.10
2021,04,16,02,56,7.10
2021,04,16,02,57,7.10
2021,04,16,02,58,7.10
2021,04,16,02,59,7.10
2021,04,16,03,00,7.10
2021,04,16,03,01,7.10
2021,04,16,03,02,7.10
2021,04,16,03,03,7.10
2021,04,16,03,04,7.10
2021,04,16,03,05,7.10
2021,04,16,03,06,7.10
2021,04,16,03,07,7.10
2021,04,16,03,08,7.00
2021,04,16,03,09,7.00
2021,04,16,03,10,7.00
2021,04,16,03,11,7.00
2021,04,16,03,12,7.00
2021,04,16,03,13,7.00
2021,04,16,03,14,7.00
2021,04,16,03,15,7.00
2021,04,16,03,16,7.00
2021,04,16,03,17,7.00
2021,04,16,03,18,7.00
2021,04,16,03,19,7.00
2021,04,16,03,20,7.00
2021,04,16,03,21,7.00
2021,04,16,03,22,7.00
2021,04,16,03,23,7.00
2021,04,16,03,24,7.00
2021,04,16,03,25,7.00
2021,04,16,03,26,6.90
2021,04,16,03,27,6.90
2021,04,16,03,28,6.90
2021,04,16,03,29,6.90
2021,04,16,03,30,6.80
2021,04,16,03,31,6.80
2021,04,16,03,32,6.80
2021,04,16,03,33,6.80
2021,04,16,03,34,6.80
2021,04,16,03,35,6.80
2021,04,16,03,36,6.80
2021,04,16,03,37,6.80
2021,04,16,03,38,6.80
2021,04,16,03,39,6.80
2021,04,16,03,40,6.70
2021,04,16,03,41,6.70
2021,04,16,03,42,6.70
2021,04,16,03,43,6.70
2021,04,16,03,44,6.70
2021,04,16,03,45,6.70
2021,04,16,03,46,6.70
2021,04,16,03,47,6.70
2021,04,16,03,48,6.70
2021,04,16,03,49,6.60
2021,04,16,03,50,6.60
2021,04,16,03,51,6.60
2021,04,16,03,52,6.60
2021,04,16,03,53,6.60
2021,04,16,03,54,6.60
2021,04,16,03,55,6.60
2021,04,16,03,56,6.60
2021,04,16,03,57,6.60
2021,04,16,03,58,6.60
2021,04,16,03,59,6.60
2021,04,16,04,00,6.60
2021,04,16,04,01,6.60
2021,04,16,04,02,6.60
2021,04,16,04,03,6.60
2021,04,16,04,04,6.60
2021,04,16,04,05,6.60
2021,04,16,04,06,6.60
2021,04,16,04,07,6.60
2021,04,16,04,08,6.60
2021,04,16,04,09,6.60
2021,04,16,04,10,6.60
2021,04,16,04,11,6.60
2021,04,16,04,12,6.60
2021,04,16,04,13,6.60
2021,04,16,04,14,6.60
2021,04,16,04,15,6.60
2021,04,16,04,16,6.60
2021,04,16,04,17,6.60
2021,04,16,04,18,6.60
2021,04,16,04,19,6.60
2021,04,16,04,20,6.60
2021,04,16,04,21,6.60
2021,04,16,04,22,6.60
2021,04,16,04,23,6.50
2021,04,16,04,24,6.40
2021,04,16,04,25,6.40
2021,04,16,04,26,6.40
2021,04,16,04,27,6.40
2021,04,16,04,28,6.40
2021,04,16,04,29,6.40
2021,04,16,04,30,6.30
2021,04,16,04,31,6.30
2021,04,16,04,32,6.30
2021,04,16,04,33,6.30
2021,04,16,04,34,6.20
2021,04,16,04,35,6.20
2021,04,16,04,36,6.20
2021,04,16,04,37,6.20
2021,04,16,04,38,6.20
2021,04,16,04,39,6.10
2021,04,16,04,40,6.10
2021,04,16,04,41,6.10
2021,04,16,04,42,6.10
2021,04,16,04,43,6.10
2021,04,16,04,44,6.10
2021,04,16,04,45,6.00
2021,04,16,04,46,6.00
2021,04,16,04,47,6.00
2021,04,16,04,48,6.00
2021,04,16,04,49,6.00
2021,04,16,04,50,5.90
2021,04,16,04,51,5.90
2021,04,16,04,52,5.90
2021,04,16,04,53,5.90
2021,04,16,04,54,5.90
2021,04,16,04,55,5.90
2021,04,16,04,56,5.80
2021,04,16,04,57,5.80
2021,04,16,04,58,5.90
2021,04,16,04,59,5.90
2021,04,16,05,00,5.90
2021,04,16,05,01,5.90
2021,04,16,05,02,5.90
2021,04,16,05,03,5.90
2021,04,16,05,04,5.90
2021,04,16,05,05,6.00
2021,04,16,05,06,6.00
2021,04,16,05,07,6.00
2021,04,16,05,08,6.00
2021,04,16,05,09,6.00
2021,04,16,05,10,6.00
2021,04,16,05,11,6.00
2021,04,16,05,12,6.00
2021,04,16,05,13,6.00
2021,04,16,05,14,6.00
2021,04,16,05,15,6.00
2021,04,16,05,16,6.00
2021,04,16,05,17,6.00
2021,04,16,05,18,6.00
2021,04,16,05,19,6.00
2021,04,16,05,20,6.00
2021,04,16,05,21,5.90
2021,04,16,05,22,5.90
2021,04,16,05,23,5.90
2021,04,16,05,24,5.90
2021,04,16,05,25,5.90
2021,04,16,05,26,5.90
2021,04,16,05,27,5.90
2021,04,16,05,28,5.90
2021,04,16,05,29,5.90
2021,04,16,05,30,5.90
2021,04,16,05,31,5.90
2021,04,16,05,32,5.90
2021,04,16,05,33,5.90
2021,04,16,05,34,5.90
2021,04,16,05,35,5.90
2021,04,16,05,36,5.90
2021,04,16,05,37,5.80
2021,04,16,05,38,5.80
2021,04,16,05,39,5.80
2021,04,16,05,40,5.80
2021,04,16,05,41,5.70
2021,04,16,05,42,5.70
2021,04,16,05,43,5.70
2021,04,16,05,44,5.70
2021,04,16,05,45,5.70
2021,04,16,05,46,5.70
2021,04,16,05,47,5.70
2021,04,16,05,48,5.70
2021,04,16,05,49,5.70
2021,04,16,05,50,5.70
2021,04,16,05,51,5.70
2021,04,16,05,52,5.70
2021,04,16,05,53,5.70
2021,04,16,05,54,5.70
2021,04,16,05,55,5.60
2021,04,16,05,56,5.60
2021,04,16,05,57,5.60
2021,04,16,05,58,5.60
2021,04,16,05,59,5.60
2021,04,16,06,00,5.60
2021,04,16,06,01,5.60
2021,04,16,06,02,5.50
2021,04,16,06,03,5.50
2021,04,16,06,04,5.50
2021,04,16,06,05,5.60
2021,04,16,06,06,5.60
2021,04,16,06,07,5.60
2021,04,16,06,08,5.60
2021,04,16,06,09,5.60
2021,04,16,06,10,5.60
2021,04,16,06,11,5.50
2021,04,16,06,12,5.50
2021,04,16,06,13,5.50
2021,04,16,06,14,5.50
2021,04,16,06,15,5.50
2021,04,16,06,16,5.50
2021,04,16,06,17,5.50
2021,04,16,06,18,5.50
2021,04,16,06,19,5.50
2021,04,16,06,20,5.50
2021,04,16,06,21,5.50
2021,04,16,06,22,5.50
2021,04,16,06,23,5.50
2021,04,16,06,24,5.50
2021,04,16,06,25,5.50
2021,04,16,06,26,5.50
2021,04,16,06,27,5.50
2021,04,16,06,28,5.50
2021,04,16,06,29,5.50
2021,04,16,06,30,5.50
2021,04,16,06,31,5.50
2021,04,16,06,32,5.60
2021,04,16,06,33,5.60
2021,04,16,06,34,5.60
2021,04,16,06,35,5.60
2021,04,16,06,36,5.60
2021,04,16,06,37,5.60
2021,04,16,06,38,5.60
2021,04,16,06,39,5.70
2021,04,16,06,40,5.70
2021,04,16,06,41,5.70
2021,04,16,06,42,5.70
2021,04,16,06,43,5.70
2021,04,16,06,44,5.70
2021,04,16,06,45,5.70
2021,04,16,06,46,5.70
2021,04,16,06,47,5.70
2021,04,16,06,48,5.70
2021,04,16,06,49,5.70
2021,04,16,06,50,5.80
2021,04,16,06,51,5.80
2021,04,16,06,52,5.90
2021,04,16,06,53,5.90
2021,04,16,06,54,6.00
2021,04,16,06,55,6.00
2021,04,16,06,56,6.00
2021,04,16,06,57,6.10
2021,04,16,06,58,6.10
2021,04,16,06,59,6.20
2021,04,16,07,00,6.20
2021,04,16,07,01,6.30
2021,04,16,07,02,6.30
2021,04,16,07,03,6.40
2021,04,16,07,04,6.40
2021,04,16,07,05,6.40
2021,04,16,07,06,6.50
2021,04,16,07,07,6.60
2021,04,16,07,08,6.60
2021,04,16,07,09,6.70
2021,04,16,07,10,6.70
2021,04,16,07,11,6.80
2021,04,16,07,12,6.80
2021,04,16,07,13,6.80
2021,04,16,07,14,6.80
2021,04,16,07,15,6.90
2021,04,16,07,16,6.90
2021,04,16,07,17,7.00
2021,04,16,07,18,7.00
2021,04,16,07,19,7.10
2021,04,16,07,20,7.20
2021,04,16,07,21,7.30
2021,04,16,07,22,7.40
2021,04,16,07,23,7.50
2021,04,16,07,24,7.60
2021,04,16,07,25,7.80
2021,04,16,07,26,7.90
2021,04,16,07,27,8.00
2021,04,16,07,28,8.10
2021,04,16,07,29,8.20
2021,04,16,07,30,8.20
2021,04,16,07,31,8.20
2021,04,16,07,32,8.20
2021,04,16,07,33,8.30
2021,04,16,07,34,8.30
2021,04,16,07,35,8.40
2021,04,16,07,36,8.40
2021,04,16,07,37,8.40
2021,04,16,07,38,8.30
2021,04,16,07,39,8.30
2021,04,16,07,40,8.30
2021,04,16,07,41,8.30
2021,04,16,07,42,8.30
2021,04,16,07,43,8.30
2021,04,16,07,44,8.30
2021,04,16,07,45,8.40
2021,04,16,07,46,8.40
2021,04,16,07,47,8.50
2021,04,16,07,48,8.60
2021,04,16,07,49,8.70
2021,04,16,07,50,8.80
2021,04,16,07,51,8.90
2021,04,16,07,52,8.90
2021,04,16,07,53,9.10
2021,04,16,07,54,9.20
2021,04,16,07,55,9.30
2021,04,16,07,56,9.30
2021,04,16,07,57,9.40
2021,04,16,07,58,9.40
2021,04,16,07,59,9.50
2021,04,16,08,00,9.60
2021,04,16,08,01,9.60
2021,04,16,08,02,9.60
2021,04,16,08,03,9.60
2021,04,16,08,04,9.70
2021,04,16,08,05,9.70
2021,04,16,08,06,9.70
2021,04,16,08,07,9.70
2021,04,16,08,08,9.80
2021,04,16,08,09,9.80
2021,04,16,08,10,9.80
2021,04,16,08,11,9.90
2021,04,16,08,12,9.90
2021,04,16,08,13,9.90
2021,04,16,08,14,10.00
2021,04,16,08,15,10.10
2021,04,16,08,16,10.20
2021,04,16,08,17,10.30
2021,04,16,08,18,10.40
2021,04,16,08,19,10.50
2021,04,16,08,20,10.60
2021,04,16,08,21,10.70
2021,04,16,08,22,10.80
2021,04,16,08,23,10.90
2021,04,16,08,24,10.90
2021,04,16,08,25,11.10
2021,04,16,08,26,11.20
2021,04,16,08,27,11.30
2021,04,16,08,28,11.40
2021,04,16,08,29,11.50
2021,04,16,08,30,11.70
2021,04,16,08,31,11.90
2021,04,16,08,32,12.10
2021,04,16,08,33,12.30
2021,04,16,08,34,12.50
2021,04,16,08,35,12.60
2021,04,16,08,36,12.80
2021,04,16,08,37,13.00
2021,04,16,08,38,13.10
2021,04,16,08,39,13.20
2021,04,16,08,40,13.40
2021,04,16,08,41,13.50
2021,04,16,08,42,13.50
2021,04,16,08,43,13.70
2021,04,16,08,44,13.80
2021,04,16,08,45,13.90
2021,04,16,08,46,14.00
2021,04,16,08,47,14.20
2021,04,16,08,48,14.30
2021,04,16,08,49,14.40
2021,04,16,08,50,14.50
2021,04,16,08,51,14.60
2021,04,16,08,52,14.70
2021,04,16,08,53,14.70
2021,04,16,08,54,14.80
2021,04,16,08,55,14.90
2021,04,16,08,56,15.00
2021,04,16,08,57,15.00
2021,04,16,08,58,15.10
2021,04,16,08,59,15.20
2021,04,16,09,00,15.20
2021,04,16,09,01,15.30
2021,04,16,09,02,15.30
2021,04,16,09,03,15.40
2021,04,16,09,04,15.50
2021,04,16,09,05,15.60
2021,04,16,09,06,15.60
2021,04,16,09,07,15.70
2021,04,16,09,08,15.70
2021,04,16,09,09,15.80
2021,04,16,09,10,15.80
2021,04,16,09,11,15.80
2021,04,16,09,12,15.90
2021,04,16,09,13,15.90
2021,04,16,09,14,15.90
2021,04,16,09,15,16.00
2021,04,16,09,16,16.10
2021,04,16,09,17,16.10
2021,04,16,09,18,16.10
2021,04,16,09,19,16.10
2021,04,16,09,20,16.20
2021,04,16,09,21,16.20
2021,04,16,09,22,16.30
2021,04,16,09,23,16.30
2021,04,16,09,24,16.30
2021,04,16,09,25,16.30
2021,04,16,09,26,16.30
2021,04,16,09,27,16.30
2021,04,16,09,28,16.30
2021,04,16,09,29,16.30
2021,04,16,09,30,16.30
2021,04,16,09,31,16.30
2021,04,16,09,32,16.30
2021,04,16,09,33,16.30
2021,04,16,09,34,16.40
2021,04,16,09,35,16.40
2021,04,16,09,36,16.40
2021,04,16,09,37,16.40
2021,04,16,09,38,16.40
2021,04,16,09,39,16.40
2021,04,16,09,40,16.50
2021,04,16,09,41,16.60
2021,04,16,09,42,16.60
2021,04,16,09,43,16.60
2021,04,16,09,44,16.60
2021,04,16,09,45,16.60
2021,04,16,09,46,16.60
2021,04,16,09,47,16.70
2021,04,16,09,48,16.70
2021,04,16,09,49,16.70
2021,04,16,09,50,16.80
2021,04,16,09,51,16.80
2021,04,16,09,52,16.90
2021,04,16,09,53,17.00
2021,04,16,09,54,17.00
2021,04,16,09,55,17.10
2021,04,16,09,56,17.10
2021,04,16,09,57,17.20
2021,04,16,09,58,17.20
2021,04,16,09,59,17.20
2021,04,16,10,00,17.30
2021,04,16,10,01,17.30
2021,04,16,10,02,17.30
2021,04,16,10,03,17.30
2021,04,16,10,04,17.30
2021,04,16,10,05,17.30
2021,04,16,10,06,17.40
2021,04,16,10,07,17.50
2021,04,16,10,08,17.50
2021,04,16,10,09,17.50
2021,04,16,10,10,17.50
2021,04,16,10,11,17.60
2021,04,16,10,12,17.60
2021,04,16,10,13,17.70
2021,04,16,10,14,17.70
2021,04,16,10,15,17.80
2021,04,16,10,16,17.80
2021,04,16,10,17,17.80
2021,04,16,10,18,17.80
2021,04,16,10,19,17.80
2021,04,16,10,20,17.80
2021,04,16,10,21,17.90
2021,04,16,10,22,17.90
2021,04,16,10,23,17.90
2021,04,16,10,24,17.90
2021,04,16,10,25,17.90
2021,04,16,10,26,17.90
2021,04,16,10,27,17.90
2021,04,16,10,28,17.90
2021,04,16,10,29,17.90
2021,04,16,10,30,17.90
2021,04,16,10,31,17.90
2021,04,16,10,32,17.90
2021,04,16,10,33,17.90
2021,04,16,10,34,18.00
2021,04,16,10,35,18.00
2021,04,16,10,36,17.90
2021,04,16,10,37,17.90
2021,04,16,10,38,17.90
2021,04,16,10,39,18.00
2021,04,16,10,40,18.10
2021,04,16,10,41,18.20
2021,04,16,10,42,18.30
2021,04,16,10,43,18.30
2021,04,16,10,44,18.40
2021,04,16,10,45,18.40
2021,04,16,10,46,18.50
2021,04,16,10,47,18.60
2021,04,16,10,48,18.70
2021,04,16,10,49,18.80
2021,04,16,10,50,18.90
2021,04,16,10,51,18.90
2021,04,16,10,52,18.90
2021,04,16,10,53,18.90
2021,04,16,10,54,18.90
2021,04,16,10,55,19.00
2021,04,16,10,56,19.10
2021,04,16,10,57,19.00
2021,04,16,10,58,18.90
2021,04,16,10,59,18.90
2021,04,16,11,00,18.90
2021,04,16,11,01,19.00
2021,04,16,11,02,19.10
2021,04,16,11,03,19.10
2021,04,16,11,04,19.10
2021,04,16,11,05,19.10
2021,04,16,11,06,19.10
2021,04,16,11,07,19.20
2021,04,16,11,08,19.30
2021,04,16,11,09,19.40
2021,04,16,11,10,19.40
2021,04,16,11,11,19.50
2021,04,16,11,12,19.50
2021,04,16,11,13,19.60
2021,04,16,11,14,19.60
2021,04,16,11,15,19.60
2021,04,16,11,16,19.60
2021,04,16,11,17,19.60
2021,04,16,11,18,19.60
2021,04,16,11,19,19.70
2021,04,16,11,20,19.70
2021,04,16,11,21,19.70
2021,04,16,11,22,19.80
2021,04,16,11,23,19.90
2021,04,16,11,24,19.90
2021,04,16,11,25,20.00
2021,04,16,11,26,20.10
2021,04,16,11,27,20.10
2021,04,16,11,28,20.10
2021,04,16,11,29,20.20
2021,04,16,11,30,20.20
2021,04,16,11,31,20.20
2021,04,16,11,32,20.20
2021,04,16,11,33,20.20
2021,04,16,11,34,20.20
2021,04,16,11,35,20.20
2021,04,16,11,36,20.20
2021,04,16,11,37,20.20
2021,04,16,11,38,20.30
2021,04,16,11,39,20.30
2021,04,16,11,40,20.40
2021,04,16,11,41,20.40
2021,04,16,11,42,20.40
2021,04,16,11,43,20.40
2021,04,16,11,44,20.40
2021,04,16,11,45,20.40
2021,04,16,11,46,20.30
2021,04,16,11,47,20.20
2021,04,16,11,48,20.20
2021,04,16,11,49,20.20
2021,04,16,11,50,20.20
2021,04,16,11,51,20.20
2021,04,16,11,52,20.20
2021,04,16,11,53,20.20
2021,04,16,11,54,20.20
2021,04,16,11,55,20.20
2021,04,16,11,56,20.20
2021,04,16,11,57,20.20
2021,04,16,11,58,20.20
2021,04,16,11,59,20.20
2021,04,16,12,00,20.20
2021,04,16,12,01,20.20
2021,04,16,12,02,20.20
2021,04,16,12,03,20.10
2021,04,16,12,04,20.00
2021,04,16,12,05,19.90
2021,04,16,12,06,19.90
2021,04,16,12,07,19.80
2021,04,16,12,08,19.80
2021,04,16,12,09,19.70
2021,04,16,12,10,19.70
2021,04,16,12,11,19.70
2021,04,16,12,12,19.70
2021,04,16,12,13,19.70
2021,04,16,12,14,19.80
2021,04,16,12,15,19.90
2021,04,16,12,16,19.90
2021,04,16,12,17,20.00
2021,04,16,12,18,20.10
2021,04,16,12,19,20.20
2021,04,16,12,20,20.30
2021,04,16,12,21,20.30
2021,04,16,12,22,20.40
2021,04,16,12,23,20.50
2021,04,16,12,24,20.50
2021,04,16,12,25,20.60
2021,04,16,12,26,20.60
2021,04,16,12,27,20.60
2021,04,16,12,28,20.60
2021,04,16,12,29,20.60
2021,04,16,12,30,20.70
2021,04,16,12,31,20.80
2021,04,16,12,32,20.80
2021,04,16,12,33,20.80
2021,04,16,12,34,20.80
2021,04,16,12,35,20.80
2021,04,16,12,36,20.70
2021,04,16,12,37,20.70
2021,04,16,12,38,20.60
2021,04,16,12,39,20.60
2021,04,16,12,40,20.60
2021,04,16,12,41,20.60
2021,04,16,12,42,20.60
2021,04,16,12,43,20.70
2021,04,16,12,44,20.80
2021,04,16,12,45,20.80
2021,04,16,12,46,20.70
2021,04,16,12,47,20.60
2021,04,16,12,48,20.60
2021,04,16,12,49,20.50
2021,04,16,12,50,20.40
2021,04,16,12,51,20.30
2021,04,16,12,52,20.40
2021,04,16,12,53,20.50
2021,04,16,12,54,20.50
2021,04,16,12,55,20.60
2021,04,16,12,56,20.70
2021,04,16,12,57,20.70
2021,04,16,12,58,20.80
2021,04,16,12,59,20.80
2021,04,16,13,00,20.80
2021,04,16,13,01,20.80
2021,04,16,13,02,20.90
2021,04,16,13,03,21.00
2021,04,16,13,04,21.00
2021,04,16,13,05,21.10
2021,04,16,13,06,21.20
2021,04,16,13,07,21.30
2021,04,16,13,08,21.30
2021,04,16,13,09,21.30
2021,04,16,13,10,21.30
2021,04,16,13,11,21.30
2021,04,16,13,12,21.40
2021,04,16,13,13,21.40
2021,04,16,13,14,21.60
2021,04,16,13,15,21.60
2021,04,16,13,16,21.60
2021,04,16,13,17,21.60
2021,04,16,13,18,21.60
2021,04,16,13,19,21.60
2021,04,16,13,20,21.60
2021,04,16,13,21,21.60
2021,04,16,13,22,21.60
2021,04,16,13,23,21.60
2021,04,16,13,24,21.60
2021,04,16,13,25,21.60
2021,04,16,13,26,21.70
2021,04,16,13,27,21.80
2021,04,16,13,28,21.80
2021,04,16,13,29,21.80
2021,04,16,13,30,21.80
2021,04,16,13,31,21.80
2021,04,16,13,32,21.90
2021,04,16,13,33,22.00
2021,04,16,13,34,22.00
2021,04,16,13,35,22.10
2021,04,16,13,36,22.10
2021,04,16,13,37,22.00
2021,04,16,13,38,22.00
2021,04,16,13,39,21.90
2021,04,16,13,40,21.90
2021,04,16,13,41,21.90
2021,04,16,13,42,21.90
2021,04,16,13,43,22.00
2021,04,16,13,44,22.00
2021,04,16,13,45,21.90
2021,04,16,13,46,21.90
2021,04,16,13,47,21.80
2021,04,16,13,48,21.80
2021,04,16,13,49,21.70
2021,04,16,13,50,21.70
2021,04,16,13,51,21.70
2021,04,16,13,52,21.80
2021,04,16,13,53,21.90
2021,04,16,13,54,21.90
2021,04,16,13,55,22.00
2021,04,16,13,56,22.00
2021,04,16,13,57,22.00
2021,04,16,13,58,22.00
2021,04,16,13,59,22.00
2021,04,16,14,00,22.10
2021,04,16,14,01,22.10
2021,04,16,14,02,22.10
2021,04,16,14,03,22.20
2021,04,16,14,04,22.10
2021,04,16,14,05,22.00
2021,04,16,14,06,21.90
2021,04,16,14,07,21.80
2021,04,16,14,08,21.80
2021,04,16,14,09,21.90
2021,04,16,14,10,22.00
2021,04,16,14,11,22.00
2021,04,16,14,12,22.00
2021,04,16,14,13,22.00
2021,04,16,14,14,22.10
2021,04,16,14,15,22.20
2021,04,16,14,16,22.30
2021,04,16,14,17,22.40
2021,04,16,14,18,22.50
2021,04,16,14,19,22.60
2021,04,16,14,20,22.70
2021,04,16,14,21,22.70
2021,04,16,14,22,22.70
2021,04,16,14,23,22.70
2021,04,16,14,24,22.70
2021,04,16,14,25,22.60
2021,04,16,14,26,22.40
2021,04,16,14,27,22.30
2021,04,16,14,28,22.20
2021,04,16,14,29,22.20
2021,04,16,14,30,22.30
2021,04,16,14,31,22.30
2021,04,16,14,32,22.30
2021,04,16,14,33,22.20
2021,04,16,14,34,22.20
2021,04,16,14,35,22.30
2021,04,16,14,36,22.30
2021,04,16,14,37,22.30
2021,04,16,14,38,22.30
2021,04,16,14,39,22.30
2021,04,16,14,40,22.30
2021,04,16,14,41,22.30
2021,04,16,14,42,22.30
2021,04,16,14,43,22.30
2021,04,16,14,44,22.20
2021,04,16,14,45,22.20
2021,04,16,14,46,22.20
2021,04,16,14,47,22.30
2021,04,16,14,48,22.30
2021,04,16,14,49,22.40
2021,04,16,14,50,22.40
2021,04,16,14,51,22.50
2021,04,16,14,52,22.60
2021,04,16,14,53,22.60
2021,04,16,14,54,22.60
2021,04,16,14,55,22.60
2021,04,16,14,56,22.60
2021,04,16,14,57,22.60
2021,04,16,14,58,22.70
2021,04,16,14,59,22.80
2021,04,16,15,00,22.80
2021,04,16,15,01,22.90
2021,04,16,15,02,22.90
2021,04,16,15,03,22.90
2021,04,16,15,04,22.90
2021,04,16,15,05,22.90
2021,04,16,15,06,22.90
2021,04,16,15,07,22.90
2021,04,16,15,08,22.90
2021,04,16,15,09,22.90
2021,04,16,15,10,22.90
2021,04,16,15,11,22.90
2021,04,16,15,12,22.90
2021,04,16,15,13,22.90
2021,04,16,15,14,22.90
2021,04,16,15,15,22.90
2021,04,16,15,16,22.90
2021,04,16,15,17,22.80
2021,04,16,15,18,22.80
2021,04,16,15,19,22.70
2021,04,16,15,20,22.70
2021,04,16,15,21,22.60
2021,04,16,15,22,22.60
2021,04,16,15,23,22.60
2021,04,16,15,24,22.60
2021,04,16,15,25,22.70
2021,04,16,15,26,22.60
2021,04,16,15,27,22.50
2021,04,16,15,28,22.40
2021,04,16,15,29,22.40
2021,04,16,15,30,22.40
2021,04,16,15,31,22.40
2021,04,16,15,32,22.40
2021,04,16,15,33,22.40
2021,04,16,15,34,22.40
2021,04,16,15,35,22.50
2021,04,16,15,36,22.50
2021,04,16,15,37,22.40
2021,04,16,15,38,22.40
2021,04,16,15,39,22.30
2021,04,16,15,40,22.20
2021,04,16,15,41,22.20
2021,04,16,15,42,22.20
2021,04,16,15,43,22.30
2021,04,16,15,44,22.40
2021,04,16,15,45,22.40
2021,04,16,15,46,22.50
2021,04,16,15,47,22.60
2021,04,16,15,48,22.70
2021,04,16,15,49,22.80
2021,04,16,15,50,22.70
2021,04,16,15,51,22.40
2021,04,16,15,52,22.00
2021,04,16,15,53,21.50
2021,04,16,15,54,21.10
2021,04,16,15,55,20.70
2021,04,16,15,56,20.60
2021,04,16,15,57,20.50
2021,04,16,15,58,20.50
2021,04,16,15,59,20.50
2021,04,16,16,00,20.50
2021,04,16,16,01,20.60
2021,04,16,16,02,20.50
2021,04,16,16,03,20.50
2021,04,16,16,04,20.40
2021,04,16,16,05,20.40
2021,04,16,16,06,20.40
2021,04,16,16,07,20.40
2021,04,16,16,08,20.40
2021,04,16,16,09,20.40
2021,04,16,16,10,20.30
2021,04,16,16,11,20.20
2021,04,16,16,12,20.20
2021,04,16,16,13,20.10
2021,04,16,16,14,20.10
2021,04,16,16,15,20.00
2021,04,16,16,16,19.90
2021,04,16,16,17,19.90
2021,04,16,16,18,19.80
2021,04,16,16,19,19.70
2021,04,16,16,20,19.60
2021,04,16,16,21,19.50
2021,04,16,16,22,19.50
2021,04,16,16,23,19.50
2021,04,16,16,24,19.70
2021,04,16,16,25,19.80
2021,04,16,16,26,19.70
2021,04,16,16,27,19.80
2021,04,16,16,28,19.70
2021,04,16,16,29,19.60
2021,04,16,16,30,19.50
2021,04,16,16,31,19.40
2021,04,16,16,32,19.40
2021,04,16,16,33,19.30
2021,04,16,16,34,19.30
2021,04,16,16,35,19.30
2021,04,16,16,36,19.20
2021,04,16,16,37,19.20
2021,04,16,16,38,19.20
2021,04,16,16,39,19.30
2021,04,16,16,40,19.30
2021,04,16,16,41,19.40
2021,04,16,16,42,19.40
2021,04,16,16,43,19.50
2021,04,16,16,44,19.50
2021,04,16,16,45,19.50
2021,04,16,16,46,19.40
2021,04,16,16,47,19.40
2021,04,16,16,48,19.30
2021,04,16,16,49,19.20
2021,04,16,16,50,19.10
2021,04,16,16,51,19.00
2021,04,16,16,52,18.90
2021,04,16,16,53,18.90
2021,04,16,16,54,19.10
2021,04,16,16,55,19.10
2021,04,16,16,56,19.00
2021,04,16,16,57,18.90
2021,04,16,16,58,18.70
2021,04,16,16,59,18.50
2021,04,16,17,00,18.40
2021,04,16,17,01,18.20
2021,04,16,17,02,18.10
2021,04,16,17,03,17.90
2021,04,16,17,04,17.90
2021,04,16,17,05,17.70
2021,04,16,17,06,17.70
2021,04,16,17,07,17.70
2021,04,16,17,08,17.70
2021,04,16,17,09,17.70
2021,04,16,17,10,17.70
2021,04,16,17,11,17.40
2021,04,16,17,12,17.50
2021,04,16,17,13,17.50
2021,04,16,17,14,17.60
2021,04,16,17,15,17.70
2021,04,16,17,16,17.70
2021,04,16,17,17,17.70
2021,04,16,17,18,17.70
2021,04,16,17,19,17.70
2021,04,16,17,20,17.70
2021,04,16,17,21,17.80
2021,04,16,17,22,17.80
2021,04,16,17,23,17.90
2021,04,16,17,24,17.90
2021,04,16,17,25,17.90
2021,04,16,17,26,17.90
2021,04,16,17,27,17.80
2021,04,16,17,28,17.80
2021,04,16,17,29,17.80
2021,04,16,17,30,17.70
2021,04,16,17,31,17.80
2021,04,16,17,32,17.80
2021,04,16,17,33,17.80
2021,04,16,17,34,17.90
2021,04,16,17,35,17.80
2021,04,16,17,36,17.80
2021,04,16,17,37,17.70
2021,04,16,17,38,17.70
2021,04,16,17,39,17.60
2021,04,16,17,40,17.60